Regional Weather Roundup
Issued by NWS

Home | Current Version | Previous Version | Graphics & Text | Print | Product List | Glossary Off
Versions: 1 2 3 4 5 6 7 8 9 10 11 12 13 14 15 16 17 18 19 20 21 22 23 24 25 26 27 28 29 30 31 32 33 34 35 36 37 38 39 40 41 42 43 44 45 46 47 48 49 50

275
ASUS43 KTOP 110508
RWRKS

WEATHER ROUNDUP FOR KANSAS
NATIONAL WEATHER SERVICE GOODLAND KS
1100 PM CST WED FEB 10 2016

NOTE:  "FAIR" INDICATES FEW OR NO CLOUDS BELOW 12,000 FEET WITH NO
SIGNIFICANT WEATHER AND/OR OBSTRUCTIONS TO VISIBILITY.

KSZ001>006-013>018-027>032-041>047-110600-
NORTHWEST KANSAS

CITY           SKY/WX    TMP DP  RH WIND       PRES   REMARKS
GOODLAND       CLOUDY    39  28  64 NW13      30.11R WCI  31
HAYS           CLOUDY    36  21  55 NW7       30.06R
HILL CITY      CLOUDY    41  31  67 N7        30.08R
RUSSELL        PTCLDY    39  31  72 N13       30.04R WCI  31
$$

KSZ061>065-074>080-084>089-110600-
SOUTHWEST KANSAS

CITY           SKY/WX    TMP DP  RH WIND       PRES   REMARKS
DODGE CITY     CLOUDY    41  25  53 NW8       30.06R
ELKHART          N/A     48  14  25 N7          N/A
GARDEN CITY    CLOUDY    44  26  49 N14       30.06R
GREAT BEND     CLEAR     37  25  60 NW10      30.04R WCI  30
LIBERAL        CLOUDY    37  16  41 N7        30.07R
PRATT          CLEAR     37  25  61 N13       30.02S WCI  29
$$

KSZ066>073-081>083-090>101-110600-
SOUTHEAST KANSAS

CITY           SKY/WX    TMP DP  RH WIND       PRES   REMARKS
CHANUTE        CLEAR     39  28  64 NE8       29.96R
COFFEYVILLE    CLEAR     39  27  62 N3        29.95R
HUTCHINSON     CLOUDY    39  27  62 NW7       30.02R
MEDICINE LODGE   N/A     42  26  53 N5        30.00R
NEWTON         CLEAR     37  27  65 N9        30.01R
PARSONS        CLEAR     31  25  78 CALM      29.95R
WICHITA INTL   PTCLDY    47  30  51 N9        29.98R
WICHITA JABRA  CLEAR     40  29  64 N8        29.99R
WICHITA MCCONL CLEAR     44  30  59 N9        29.98R
WINFIELD       CLEAR     47  31  53 NE6       29.98R
$$

KSZ007>012-019>026-033>040-048>060-102>105-110600-
NORTHEAST KANSAS

CITY           SKY/WX    TMP DP  RH WIND       PRES   REMARKS
CONCORDIA      CLOUDY    35  29  78 NE10      30.06R WCI  27
EMPORIA        CLEAR     36  28  73 N8        29.99R
LAWRENCE       CLOUDY    31  21  66 NE9       30.04R
MANHATTAN      CLEAR     39  30  70 N6        30.04R
MARYSVILLE     CLOUDY    30  28  93 NE8       30.08R
OLATHE IND     CLEAR     32  21  64 NE8       30.02R
OLATHE EXE     CLEAR     30  20  66 NE10      30.02R WCI  21
SALINA         CLOUDY    38  28  67 NW8       30.04R
TOPEKA BILLARD CLEAR     34  22  61 N7        30.04R
TOPEKA FORBES  CLEAR     38  23  55 N5        30.02R
$$




USA.gov is the U.S. government's official web portal to all federal, state and local government web resources and services.